Flag for Brazil Weather past 2 weeks in Rio de Janeiro, Rio de Janeiro, Brazil

Now
81 °F

Clear.


Feels Like: 85 °F
Forecast: N/A
Wind: 10 mph from South

Location: Rio De Janeiro Airport

Current Time: Dec 20, 2014 at 9:54:19 PM

Latest Report: Dec 20, 2014 at 9:00 PM


Visibility: 10 mi

Pressure: 29.74 "Hg

Humidity: 74%

Dew point: 72 °F

Location of Rio de JaneiroLocation

Historic Weather in Rio de Janeiro — Graph

°F

Rio de Janeiro temperature yesterday

Maximum temperature yesterday: 86 °F (at 11:00 AM)
Minimum temperature yesterday: 75 °F (at 6:00 AM)
Average temperature yesterday: 80 °F

Past Weeks' High & Low Weather Summary

 TemperatureHumidityPressure
High91 °F (Dec 12, 11:00 AM)94% (Dec 5, 11:00 PM)30.07 "Hg (Dec 5, 11:00 PM)
Low70 °F (Dec 6, 6:00 AM)43% (Dec 18, 3:00 PM)29.68 "Hg (Dec 18, 5:00 PM)
Average80 °F72%29.88 "Hg
* Reported Dec 5 8:00 PM — Dec 20 8:00 PM, Rio de Janeiro, Weather by CustomWeather, © 2014

Note: Actual official high and low records may vary slightly from our data, if they occured in-between our weather recording intervals... More about our weather records

Advertising

Rio de Janeiro weather history for previous 24 hours

 ConditionsComfort  
Time TempWeatherWind HumidityBarometerVisibility
8:00 PM
Dec 20
81 °FClear.12 mph79%29.74 "Hg10 mi
7:00 PM79 °FPartly sunny.8 mph84%29.74 "HgN/A
6:00 PM88 °FPartly sunny.7 mph59%29.74 "HgN/A
5:00 PM82 °FPartly sunny.14 mph74%29.74 "HgN/A
4:00 PM81 °FPartly sunny.12 mph74%29.74 "HgN/A
3:00 PM82 °FPartly sunny.14 mph74%29.77 "HgN/A
2:00 PM84 °FPartly sunny.10 mph66%29.77 "HgN/A
1:00 PM82 °FPartly sunny.12 mph70%29.77 "HgN/A
12:00 PM86 °FPartly sunny.14 mph66%29.80 "HgN/A
11:00 AM79 °FBroken clouds.9 mph84%29.80 "Hg6 mi
10:00 AM81 °FFog.3 mph79%29.80 "Hg3 mi
9:00 AM79 °FBroken clouds.No wind84%29.80 "Hg4 mi
8:00 AM77 °FBroken clouds.1 mph89%29.80 "Hg4 mi
7:00 AM77 °FBroken clouds.1 mph89%29.77 "Hg5 mi
6:00 AM75 °FPartly cloudy.6 mph94%29.74 "Hg6 mi
12:00 AM77 °FPassing clouds.8 mph89%29.83 "HgN/A
11:00 PM
Dec 19
77 °FPassing clouds.7 mph89%29.86 "HgN/A
10:00 PM77 °FPassing clouds.8 mph83%29.83 "HgN/A
9:00 PM77 °FPassing clouds.9 mph83%29.83 "HgN/A
Weather by CustomWeather, © 2014

See weather overviewHow to use our weather pages